Regional Weather Roundup
Issued by NWS

Home | Current Version | Previous Version | Text Only | Print | Product List | Glossary On
Versions: 1 2 3 4 5 6 7 8 9 10 11 12 13 14 15 16 17 18 19 20 21 22 23 24 25 26 27 28 29 30 31 32 33 34 35 36 37 38 39 40 41 42 43 44 45 46 47 48 49 50
000
ASUS44 KOUN 270010
RWROK

WEATHER ROUNDUP FOR OKLAHOMA
NATIONAL WEATHER SERVICE NORMAN OK
700 PM CDT THU MAR 26 2015

NOTE: "FAIR" INDICATES FEW OR NO CLOUDS BELOW 12,000 FEET WITH NO
      SIGNIFICANT WEATHER AND/OR OBSTRUCTIONS TO VISIBILITY.

OKZ001>007-009>012-014-015-017-270100-
NORTHWEST OKLAHOMA AND THE PANHANDLE

CITY           SKY/WX    TMP DP  RH WIND       PRES   REMARKS
GAGE           SUNNY     64  24  21 W15       30.06F
6HR MIN TEMP:  54; 6HR MAX TEMP:  66;

GUYMON         SUNNY     64  21  19 N17       30.09R
ENID/WOODRING  PTCLDY    61  32  33 SW7       30.09F
$$

OKZ016-021>023-033>039-044-045-270100-
SOUTHWEST OKLAHOMA

CITY           SKY/WX    TMP DP  RH WIND       PRES   REMARKS
LAWTON/REGL    CLEAR     62  29  28 NW7       30.13F
6HR MIN TEMP:  56; 6HR MAX TEMP:  64;

LAWTON/FT SILL CLEAR     61  31  32 N5        30.12S
FREDERICK      CLEAR     62  30  29 NE6       30.11F
CLINTON        SUNNY     61  35  37 W5        30.12F
HOBART         CLEAR     60  31  33 CALM      30.12F
ALTUS AFB      SUNNY     63  31  30 SE5       30.12F
$$

OKZ018>020-024>031-270100-
CENTRAL OKLAHOMA

CITY           SKY/WX    TMP DP  RH WIND       PRES   REMARKS
OKLAHOMA CITY  PTCLDY    59  29  31 N7        30.12S
6HR MIN TEMP:  54; 6HR MAX TEMP:  62;

OKC/WILEY POST CLEAR     59  30  33 N8        30.12S
STILLWATER     CLEAR     59  28  30 NW5       30.11S
$$

OKZ008-013-054>072-270100-
NORTHEAST OKLAHOMA

CITY           SKY/WX    TMP DP  RH WIND       PRES   REMARKS
TULSA          CLEAR     58  26  29 N8        30.09S
6HR MIN TEMP:  52; 6HR MAX TEMP:  60;

TULSA/JONES    CLEAR     58  24  27 N8        30.10S
PONCA CITY     CLEAR     58  28  32 W5        30.08F
BARTLESVILLE   CLEAR     56  25  30 N5        30.10F
MUSKOGEE       CLEAR     56  29  35 N12       30.11S
$$

OKZ032-040>043-046>053-073>077-270100-
SOUTH CENTRAL/SOUTHEAST OKLAHOMA

CITY           SKY/WX    TMP DP  RH WIND       PRES   REMARKS
ARDMORE/DWNTWN CLEAR     59  23  25 N9        30.12R
MCALESTER      PTCLDY    58  28  32 N12       30.11R
$$




USA.gov is the U.S. government's official web portal to all federal, state and local government web resources and services.